WXM80 ListenWXM80 Stop

You find our weather info also at:

UK Metoffice

WeatherCloud

Weather Underground

Northeastern Weather Network

AWEKAS

Citizen Weather Observer Program (CWOP)

HAMweather, WeatherForYou, PWS Weather


Weather Underground History page Text

Daily Summary for January 29, 2016 Units:  English    Metric   Both
« Previous Day
Next Day »
Daily Weekly Monthly Yearly Custom
  High: Low: Average:
Temperature: 43.3 °F 31.3 °F 36.4 °F
Dew Point: 33.6 °F 21.6 °F 28.3 °F
Humidity: 88 % 59 % 73 %
Wind Speed: 12.9 mph 0.0 mph 3.4 mph
Wind Gust: 20.7 mph - -
Wind:- - West
Pressure: 29.81 in 29.41 in -
Precipitation: 0.00 in    
Historical Graphs
 
 
Tabular Data for January 29, 2016
Time Temperature Dew Point Pressure Wind Wind Speed Wind Gust Humidity Rainfall Rate (Hourly)
00:04 34.4 °F 28.9 °F 29.66 in Calm   1.2 mph 80 % 0.00 in
00:20 34.5 °F 28.7 °F 29.65 in Calm     79 % 0.00 in
00:30 34.7 °F 28.9 °F 29.64 in Calm     79 % 0.00 in
00:35 34.7 °F 28.9 °F 29.63 in Calm     79 % 0.00 in
00:40 34.7 °F 28.9 °F 29.62 in Calm     79 % 0.00 in
00:45 34.7 °F 28.9 °F 29.62 in Calm     79 % 0.00 in
00:50 34.8 °F 29.0 °F 29.60 in Calm     79 % 0.00 in
00:55 34.8 °F 29.0 °F 29.61 in Calm     79 % 0.00 in
01:00 34.9 °F 29.0 °F 29.61 in Calm     79 % 0.00 in
01:05 34.9 °F 29.0 °F 29.59 in Calm     79 % 0.00 in
01:11 35.0 °F 29.1 °F 29.59 in Calm     79 % 0.00 in
01:16 35.0 °F 28.8 °F 29.59 in Calm     78 % 0.00 in
01:21 35.0 °F 28.8 °F 29.59 in Calm     78 % 0.00 in
01:26 34.9 °F 28.7 °F 29.59 in Calm     78 % 0.00 in
01:31 34.8 °F 29.0 °F 29.58 in Calm     79 % 0.00 in
01:36 34.8 °F 29.0 °F 29.58 in Calm     79 % 0.00 in
01:41 34.7 °F 28.9 °F 29.58 in Calm   1.2 mph 79 % 0.00 in
01:46 34.7 °F 29.2 °F 29.58 in SW 0.2 mph 1.2 mph 80 % 0.00 in
01:51 34.7 °F 29.2 °F 29.56 in Calm     80 % 0.00 in
01:56 34.6 °F 29.1 °F 29.56 in Calm     80 % 0.00 in
02:02 34.5 °F 29.0 °F 29.56 in Calm     80 % 0.00 in
02:07 34.5 °F 29.0 °F 29.56 in Calm     80 % 0.00 in
02:12 34.4 °F 28.9 °F 29.55 in Calm     80 % 0.00 in
02:17 34.3 °F 28.8 °F 29.54 in Calm     80 % 0.00 in
02:22 34.4 °F 29.2 °F 29.54 in Calm     81 % 0.00 in
02:27 34.3 °F 29.1 °F 29.54 in Calm     81 % 0.00 in
02:32 34.2 °F 29.0 °F 29.55 in Calm     81 % 0.00 in
02:37 34.0 °F 29.1 °F 29.55 in Calm   1.2 mph 82 % 0.00 in
02:42 33.9 °F 29.0 °F 29.55 in SW 0.3 mph 1.0 mph 82 % 0.00 in
02:47 33.8 °F 28.9 °F 29.55 in Calm     82 % 0.00 in
02:53 33.7 °F 28.8 °F 29.54 in Calm     82 % 0.00 in
02:58 33.7 °F 28.8 °F 29.55 in SW 0.1 mph 1.2 mph 82 % 0.00 in
03:08 33.5 °F 28.6 °F 29.56 in Calm     82 % 0.00 in
03:13 33.4 °F 28.5 °F 29.56 in Calm     82 % 0.00 in
03:18 33.3 °F 28.4 °F 29.56 in Calm     82 % 0.00 in
03:23 33.3 °F 28.7 °F 29.55 in Calm     83 % 0.00 in
03:33 33.1 °F 28.5 °F 29.54 in SW 0.3 mph 1.2 mph 83 % 0.00 in
03:38 33.1 °F 28.5 °F 29.55 in Calm   1.2 mph 83 % 0.00 in
03:44 33.1 °F 28.8 °F 29.55 in SW 0.1 mph 1.0 mph 84 % 0.00 in
03:49 33.1 °F 28.8 °F 29.53 in Calm     84 % 0.00 in
03:54 33.1 °F 28.8 °F 29.53 in Calm   1.2 mph 84 % 0.00 in
03:59 33.2 °F 28.9 °F 29.52 in Calm     84 % 0.00 in
04:04 33.2 °F 28.9 °F 29.52 in Calm     84 % 0.00 in
04:09 33.2 °F 28.9 °F 29.52 in Calm     84 % 0.00 in
04:14 33.1 °F 28.8 °F 29.51 in Calm     84 % 0.00 in
04:19 33.2 °F 28.9 °F 29.51 in Calm     84 % 0.00 in
04:35 33.0 °F 28.7 °F 29.50 in SW 0.1 mph 1.2 mph 84 % 0.00 in
04:40 33.0 °F 28.7 °F 29.50 in Calm     84 % 0.00 in
04:45 32.9 °F 28.3 °F 29.50 in Calm     83 % 0.00 in
04:50 32.8 °F 28.5 °F 29.49 in Calm     84 % 0.00 in
04:55 32.8 °F 28.5 °F 29.49 in Calm     84 % 0.00 in
05:00 32.6 °F 28.3 °F 29.48 in Calm     84 % 0.00 in
05:05 32.6 °F 28.3 °F 29.47 in Calm     84 % 0.00 in
05:10 32.5 °F 28.2 °F 29.47 in Calm     84 % 0.00 in
05:20 32.3 °F 28.3 °F 29.47 in Calm     85 % 0.00 in
05:26 32.2 °F 28.2 °F 29.47 in SW 1.4 mph 2.3 mph 85 % 0.00 in
05:31 32.2 °F 28.2 °F 29.48 in SW 1.4 mph 2.3 mph 85 % 0.00 in
05:36 32.2 °F 28.2 °F 29.48 in Calm     85 % 0.00 in
05:41 32.2 °F 27.9 °F 29.48 in Calm   1.2 mph 84 % 0.00 in
05:46 32.2 °F 27.9 °F 29.49 in SW 0.7 mph 1.2 mph 84 % 0.00 in
05:51 32.1 °F 27.8 °F 29.49 in SW 0.8 mph 2.3 mph 84 % 0.00 in
05:56 32.1 °F 27.8 °F 29.49 in SW 0.7 mph 1.2 mph 84 % 0.00 in
06:01 32.1 °F 27.8 °F 29.49 in SW 0.1 mph 1.2 mph 84 % 0.00 in
06:06 32.1 °F 28.1 °F 29.49 in SW 0.6 mph 1.2 mph 85 % 0.00 in
06:12 32.2 °F 28.2 °F 29.49 in SW 0.2 mph 1.2 mph 85 % 0.00 in
06:17 32.2 °F 28.2 °F 29.49 in Calm     85 % 0.00 in
06:22 32.2 °F 28.2 °F 29.48 in Calm     85 % 0.00 in
06:27 32.2 °F 28.2 °F 29.48 in Calm     85 % 0.00 in
06:32 32.3 °F 28.3 °F 29.47 in Calm     85 % 0.00 in
06:37 32.4 °F 28.4 °F 29.47 in SW 0.3 mph 1.2 mph 85 % 0.00 in
06:42 32.3 °F 28.0 °F 29.46 in SW 0.6 mph 2.3 mph 84 % 0.00 in
06:47 32.3 °F 28.0 °F 29.47 in SW 0.4 mph 2.0 mph 84 % 0.00 in
06:52 32.4 °F 28.1 °F 29.47 in SW 0.7 mph 2.0 mph 84 % 0.00 in
06:57 32.4 °F 28.1 °F 29.46 in SW 0.2 mph 1.2 mph 84 % 0.00 in
07:03 32.4 °F 28.4 °F 29.46 in SW 0.1 mph 1.2 mph 85 % 0.00 in
07:08 32.5 °F 28.2 °F 29.46 in SW 0.6 mph 2.3 mph 84 % 0.00 in
07:13 32.5 °F 28.2 °F 29.46 in SW 0.9 mph 2.3 mph 84 % 0.00 in
07:18 32.5 °F 28.2 °F 29.45 in Calm     84 % 0.00 in
07:23 32.5 °F 28.2 °F 29.45 in Calm   1.2 mph 84 % 0.00 in
07:28 32.4 °F 28.1 °F 29.45 in SW 0.1 mph 1.2 mph 84 % 0.00 in
07:33 32.3 °F 28.0 °F 29.45 in SW 1.2 mph 2.3 mph 84 % 0.00 in
07:38 32.2 °F 28.2 °F 29.44 in Calm     85 % 0.00 in
07:43 32.0 °F 28.0 °F 29.44 in SW 0.7 mph 2.0 mph 85 % 0.00 in
07:48 31.9 °F 28.2 °F 29.44 in SW 1.5 mph 2.3 mph 86 % 0.00 in
07:54 31.8 °F 28.1 °F 29.44 in SW 1.6 mph 3.0 mph 86 % 0.00 in
07:59 31.8 °F 28.1 °F 29.44 in SW 1.7 mph 3.5 mph 86 % 0.00 in
08:04 31.9 °F 28.5 °F 29.44 in SW 1.4 mph 3.5 mph 87 % 0.00 in
08:09 32.0 °F 28.6 °F 29.43 in SW 1.0 mph 2.3 mph 87 % 0.00 in
08:14 32.1 °F 28.9 °F 29.43 in SW 1.5 mph 2.3 mph 88 % 0.00 in
08:19 32.4 °F 29.2 °F 29.43 in WSW 1.1 mph 4.0 mph 88 % 0.00 in
08:24 32.8 °F 29.6 °F 29.43 in SW 2.3 mph 3.5 mph 88 % 0.00 in
08:29 33.2 °F 30.0 °F 29.43 in SSW 1.2 mph 3.5 mph 88 % 0.00 in
08:34 33.8 °F 30.6 °F 29.44 in West 1.2 mph 2.3 mph 88 % 0.00 in
08:45 34.9 °F 30.6 °F 29.44 in SW 2.6 mph 5.8 mph 84 % 0.00 in
08:50 35.4 °F 30.8 °F 29.44 in SW 3.2 mph 4.6 mph 83 % 0.00 in
08:55 36.0 °F 31.0 °F 29.43 in NW 0.4 mph 4.6 mph 82 % 0.00 in
09:00 36.6 °F 31.3 °F 29.44 in SW 5.4 mph 9.2 mph 81 % 0.00 in
09:05 37.1 °F 31.2 °F 29.44 in WNW 1.0 mph 4.0 mph 79 % 0.00 in
09:10 37.5 °F 31.3 °F 29.44 in SSE 1.4 mph 3.5 mph 78 % 0.00 in
09:15 37.9 °F 31.3 °F 29.44 in WNW 1.2 mph 3.5 mph 77 % 0.00 in
09:20 38.3 °F 31.4 °F 29.44 in WSW 3.8 mph 6.9 mph 76 % 0.00 in
09:25 38.8 °F 31.6 °F 29.44 in West 1.5 mph 3.5 mph 75 % 0.00 in
09:30 39.4 °F 31.5 °F 29.44 in SSW 3.2 mph 5.8 mph 73 % 0.00 in
09:36 39.8 °F 31.2 °F 29.44 in SW 0.3 mph 2.3 mph 71 % 0.00 in
09:41 39.9 °F 30.9 °F 29.43 in WSW 1.5 mph 3.5 mph 70 % 0.00 in
09:46 40.2 °F 30.8 °F 29.44 in WSW 3.5 mph 5.8 mph 69 % 0.00 in
09:51 40.4 °F 30.7 °F 29.43 in SSW 3.2 mph 5.8 mph 68 % 0.00 in
09:56 40.7 °F 31.0 °F 29.44 in SSW 3.2 mph 5.0 mph 68 % 0.00 in
10:01 41.1 °F 31.0 °F 29.44 in WSW 2.3 mph 3.5 mph 67 % 0.00 in
10:06 41.5 °F 30.6 °F 29.44 in WNW 2.1 mph 3.5 mph 65 % 0.00 in
10:11 42.0 °F 30.7 °F 29.44 in WSW 4.5 mph 9.0 mph 64 % 0.00 in
10:16 42.3 °F 30.6 °F 29.44 in NW 3.7 mph 6.9 mph 63 % 0.00 in
10:21 42.2 °F 29.7 °F 29.44 in West 4.1 mph 7.0 mph 61 % 0.00 in
10:27 41.8 °F 29.3 °F 29.44 in NW 4.4 mph 6.9 mph 61 % 0.00 in
10:37 41.4 °F 29.7 °F 29.44 in WNW 4.5 mph 6.0 mph 63 % 0.00 in
10:42 41.3 °F 29.6 °F 29.44 in West 2.7 mph 5.8 mph 63 % 0.00 in
10:47 41.4 °F 29.3 °F 29.44 in WSW 3.0 mph 6.9 mph 62 % 0.00 in
10:52 41.4 °F 29.3 °F 29.43 in West 2.8 mph 6.0 mph 62 % 0.00 in
10:57 41.4 °F 29.3 °F 29.43 in SW 1.1 mph 3.5 mph 62 % 0.00 in
11:02 41.4 °F 29.7 °F 29.43 in WSW 1.0 mph 3.5 mph 63 % 0.00 in
11:07 41.6 °F 29.5 °F 29.43 in WNW 0.7 mph 3.5 mph 62 % 0.00 in
11:12 41.8 °F 29.7 °F 29.42 in SW 1.3 mph 6.9 mph 62 % 0.00 in
11:18 41.9 °F 29.8 °F 29.42 in WSW 4.3 mph 5.0 mph 62 % 0.00 in
11:23 41.9 °F 29.8 °F 29.42 in WSW 5.0 mph 6.9 mph 62 % 0.00 in
11:28 41.8 °F 29.7 °F 29.42 in WNW 5.3 mph 11.5 mph 62 % 0.00 in
11:33 41.6 °F 29.9 °F 29.42 in West 7.0 mph 10.4 mph 63 % 0.00 in
11:38 41.3 °F 30.0 °F 29.42 in WSW 6.4 mph 11.0 mph 64 % 0.00 in
11:43 41.0 °F 29.7 °F 29.42 in WSW 6.6 mph 10.4 mph 64 % 0.00 in
11:48 40.9 °F 30.0 °F 29.42 in WSW 5.2 mph 7.0 mph 65 % 0.00 in
11:53 40.7 °F 30.2 °F 29.42 in WSW 4.3 mph 6.9 mph 66 % 0.00 in
11:58 40.9 °F 30.4 °F 29.42 in WSW 5.5 mph 9.2 mph 66 % 0.00 in
12:03 41.0 °F 30.5 °F 29.41 in WSW 2.3 mph 3.5 mph 66 % 0.00 in
12:09 41.3 °F 30.4 °F 29.41 in WSW 5.7 mph 10.4 mph 65 % 0.00 in
12:14 41.6 °F 30.7 °F 29.41 in WSW 4.5 mph 6.9 mph 65 % 0.00 in
12:19 41.8 °F 30.5 °F 29.41 in SW 6.5 mph 11.5 mph 64 % 0.00 in
12:24 42.1 °F 30.0 °F 29.41 in WSW 8.1 mph 12.7 mph 62 % 0.00 in
12:29 42.6 °F 30.5 °F 29.41 in West 7.3 mph 13.8 mph 62 % 0.00 in
12:34 42.7 °F 30.2 °F 29.41 in WSW 3.9 mph 9.0 mph 61 % 0.00 in
12:39 42.8 °F 30.7 °F 29.41 in SW 5.1 mph 8.0 mph 62 % 0.00 in
12:44 42.9 °F 30.8 °F 29.41 in SSW 3.3 mph 8.1 mph 62 % 0.00 in
12:54 43.2 °F 31.4 °F 29.41 in WSW 5.1 mph 9.2 mph 63 % 0.00 in
13:00 43.3 °F 31.1 °F 29.41 in WNW 4.8 mph 7.0 mph 62 % 0.00 in
13:05 43.2 °F 31.1 °F 29.41 in WSW 4.5 mph 11.0 mph 62 % 0.00 in
13:10 43.2 °F 30.6 °F 29.41 in NW 3.9 mph 6.9 mph 61 % 0.00 in
13:15 43.2 °F 30.6 °F 29.41 in WNW 6.4 mph 12.7 mph 61 % 0.00 in
13:20 43.1 °F 31.0 °F 29.41 in West 2.8 mph 8.1 mph 62 % 0.00 in
13:25 42.9 °F 31.9 °F 29.42 in NNE 4.1 mph 6.0 mph 65 % 0.00 in
13:30 42.8 °F 32.2 °F 29.42 in NNW 2.6 mph 4.0 mph 66 % 0.00 in
13:40 42.3 °F 31.7 °F 29.42 in NW 2.6 mph 10.4 mph 66 % 0.00 in
13:51 41.7 °F 31.9 °F 29.43 in NW 3.4 mph 5.8 mph 68 % 0.00 in
13:56 41.4 °F 31.6 °F 29.43 in North 5.3 mph 10.4 mph 68 % 0.00 in
14:01 41.0 °F 32.0 °F 29.44 in NNW 6.3 mph 12.7 mph 70 % 0.00 in
14:06 40.5 °F 32.2 °F 29.44 in NW 5.0 mph 8.1 mph 72 % 0.00 in
14:11 40.2 °F 32.6 °F 29.44 in NNW 4.7 mph 8.1 mph 74 % 0.00 in
14:16 39.8 °F 32.8 °F 29.45 in NW 2.3 mph 5.8 mph 76 % 0.00 in
14:21 39.6 °F 33.0 °F 29.45 in WNW 1.6 mph 5.0 mph 77 % 0.00 in
14:26 39.3 °F 33.0 °F 29.45 in NW 1.5 mph 3.5 mph 78 % 0.00 in
14:31 39.2 °F 32.9 °F 29.45 in WNW 1.0 mph 4.6 mph 78 % 0.00 in
14:36 39.1 °F 32.8 °F 29.45 in WNW 1.7 mph 3.5 mph 78 % 0.00 in
14:42 39.1 °F 32.8 °F 29.45 in WNW 1.0 mph 3.5 mph 78 % 0.00 in
14:47 39.1 °F 32.8 °F 29.46 in NW 0.6 mph 3.5 mph 78 % 0.00 in
14:52 39.2 °F 32.9 °F 29.46 in NNW 2.0 mph 6.9 mph 78 % 0.00 in
14:57 39.3 °F 33.0 °F 29.46 in NW 2.0 mph 3.5 mph 78 % 0.00 in
15:02 39.4 °F 32.8 °F 29.47 in WNW 6.5 mph 10.4 mph 77 % 0.00 in
15:07 39.4 °F 32.8 °F 29.47 in NNW 4.3 mph 6.9 mph 77 % 0.00 in
15:12 39.5 °F 33.2 °F 29.47 in WNW 4.3 mph 9.2 mph 78 % 0.00 in
15:17 39.6 °F 33.3 °F 29.48 in WSW 3.9 mph 4.6 mph 78 % 0.00 in
15:22 39.7 °F 33.4 °F 29.48 in WNW 3.0 mph 9.2 mph 78 % 0.00 in
15:27 39.7 °F 33.1 °F 29.48 in NNW 3.7 mph 6.0 mph 77 % 0.00 in
15:33 39.8 °F 33.2 °F 29.49 in NW 5.2 mph 8.1 mph 77 % 0.00 in
15:38 39.8 °F 33.2 °F 29.48 in NNW 4.9 mph 11.5 mph 77 % 0.00 in
15:43 39.9 °F 33.3 °F 29.49 in WNW 5.3 mph 10.4 mph 77 % 0.00 in
15:48 39.9 °F 33.3 °F 29.49 in NW 7.0 mph 11.5 mph 77 % 0.00 in
15:53 39.9 °F 33.3 °F 29.50 in WNW 3.8 mph 6.0 mph 77 % 0.00 in
15:58 39.9 °F 33.3 °F 29.50 in NW 1.4 mph 8.1 mph 77 % 0.00 in
16:03 39.9 °F 33.6 °F 29.50 in WNW 2.5 mph 5.8 mph 78 % 0.00 in
16:13 39.9 °F 32.9 °F 29.50 in NW 4.4 mph 9.2 mph 76 % 0.00 in
16:18 39.8 °F 32.5 °F 29.51 in WNW 5.9 mph 9.2 mph 75 % 0.00 in
16:24 39.8 °F 32.8 °F 29.51 in NNW 3.4 mph 8.1 mph 76 % 0.00 in
16:34 39.8 °F 32.2 °F 29.52 in West 4.4 mph 6.9 mph 74 % 0.00 in
16:39 39.8 °F 32.5 °F 29.52 in NW 2.6 mph 6.9 mph 75 % 0.00 in
16:44 39.8 °F 30.8 °F 29.53 in WNW 5.9 mph 15.0 mph 70 % 0.00 in
16:54 39.7 °F 30.0 °F 29.53 in WNW 2.9 mph 10.4 mph 68 % 0.00 in
16:59 39.7 °F 29.6 °F 29.53 in NNW 6.3 mph 12.7 mph 67 % 0.00 in
17:04 39.7 °F 29.3 °F 29.54 in WNW 5.0 mph 6.9 mph 66 % 0.00 in
17:15 39.7 °F 28.9 °F 29.54 in WNW 4.5 mph 8.1 mph 65 % 0.00 in
17:20 39.7 °F 28.9 °F 29.55 in West 3.7 mph 9.2 mph 65 % 0.00 in
17:25 39.7 °F 28.9 °F 29.55 in West 7.4 mph 14.0 mph 65 % 0.00 in
17:30 39.6 °F 27.6 °F 29.55 in NW 6.1 mph 10.4 mph 62 % 0.00 in
17:35 39.5 °F 27.2 °F 29.55 in WNW 2.7 mph 10.0 mph 61 % 0.00 in
17:40 39.3 °F 26.6 °F 29.56 in WNW 8.0 mph 12.7 mph 60 % 0.00 in
17:45 39.2 °F 26.5 °F 29.57 in NW 8.4 mph 15.0 mph 60 % 0.00 in
17:50 39.0 °F 26.3 °F 29.57 in WSW 8.9 mph 13.8 mph 60 % 0.00 in
17:55 38.9 °F 26.6 °F 29.58 in NW 9.2 mph 16.0 mph 61 % 0.00 in
18:00 38.8 °F 26.5 °F 29.58 in NW 5.7 mph 12.0 mph 61 % 0.00 in
18:06 38.8 °F 25.7 °F 29.58 in NW 6.2 mph 11.5 mph 59 % 0.00 in
18:11 38.7 °F 26.0 °F 29.58 in WNW 9.8 mph 20.7 mph 60 % 0.00 in
18:16 38.6 °F 25.9 °F 29.58 in West 7.4 mph 15.0 mph 60 % 0.00 in
18:21 38.6 °F 26.3 °F 29.59 in WNW 7.4 mph 11.5 mph 61 % 0.00 in
18:26 38.4 °F 25.7 °F 29.59 in West 6.9 mph 14.0 mph 60 % 0.00 in
18:31 38.4 °F 25.7 °F 29.60 in WNW 7.5 mph 12.7 mph 60 % 0.00 in
18:36 38.2 °F 25.1 °F 29.60 in WNW 5.5 mph 11.5 mph 59 % 0.00 in
18:41 38.1 °F 25.4 °F 29.60 in WSW 7.5 mph 12.7 mph 60 % 0.00 in
18:46 38.0 °F 25.3 °F 29.61 in WSW 8.7 mph 17.3 mph 60 % 0.00 in
18:51 37.9 °F 25.2 °F 29.61 in WNW 6.7 mph 11.5 mph 60 % 0.00 in
18:57 37.7 °F 25.1 °F 29.61 in WNW 8.6 mph 13.8 mph 60 % 0.00 in
19:02 37.6 °F 25.0 °F 29.61 in WNW 12.9 mph 18.4 mph 60 % 0.00 in
19:07 37.4 °F 24.8 °F 29.62 in WNW 6.5 mph 13.8 mph 60 % 0.00 in
19:12 37.3 °F 24.7 °F 29.63 in WNW 5.6 mph 11.5 mph 60 % 0.00 in
19:17 37.1 °F 24.9 °F 29.63 in WNW 8.0 mph 12.7 mph 61 % 0.00 in
19:22 37.0 °F 24.4 °F 29.63 in WNW 8.2 mph 16.1 mph 60 % 0.00 in
19:27 36.9 °F 24.7 °F 29.64 in NW 8.7 mph 11.5 mph 61 % 0.00 in
19:37 36.6 °F 24.8 °F 29.64 in NW 5.6 mph 12.7 mph 62 % 0.00 in
19:43 36.5 °F 25.1 °F 29.65 in WNW 4.9 mph 13.0 mph 63 % 0.00 in
19:48 36.3 °F 24.5 °F 29.65 in NW 8.8 mph 12.7 mph 62 % 0.00 in
19:53 36.2 °F 24.8 °F 29.66 in NNW 8.2 mph 15.0 mph 63 % 0.00 in
19:58 36.0 °F 24.6 °F 29.66 in WNW 4.3 mph 11.5 mph 63 % 0.00 in
20:03 36.0 °F 25.4 °F 29.67 in NW 5.0 mph 9.2 mph 65 % 0.00 in
20:13 35.6 °F 24.2 °F 29.67 in NW 7.3 mph 11.5 mph 63 % 0.00 in
20:23 35.3 °F 24.3 °F 29.68 in West 8.0 mph 12.7 mph 64 % 0.00 in
20:28 35.2 °F 24.2 °F 29.68 in WNW 7.0 mph 11.5 mph 64 % 0.00 in
20:39 35.0 °F 24.0 °F 29.69 in WNW 4.3 mph 8.1 mph 64 % 0.00 in
20:44 34.9 °F 23.9 °F 29.69 in West 5.2 mph 8.0 mph 64 % 0.00 in
20:49 34.8 °F 24.2 °F 29.69 in NNW 7.3 mph 12.7 mph 65 % 0.00 in
20:54 34.7 °F 23.8 °F 29.69 in WNW 6.2 mph 11.5 mph 64 % 0.00 in
20:59 34.6 °F 23.7 °F 29.69 in NNW 4.6 mph 9.2 mph 64 % 0.00 in
21:04 34.5 °F 23.6 °F 29.69 in West 4.5 mph 11.5 mph 64 % 0.00 in
21:09 34.3 °F 23.7 °F 29.70 in NW 4.2 mph 11.5 mph 65 % 0.00 in
21:14 34.2 °F 23.3 °F 29.71 in West 7.8 mph 17.0 mph 64 % 0.00 in
21:19 34.1 °F 23.9 °F 29.71 in NW 8.5 mph 10.0 mph 66 % 0.00 in
21:25 34.0 °F 23.8 °F 29.71 in NW 3.3 mph 11.5 mph 66 % 0.00 in
21:30 33.9 °F 23.7 °F 29.71 in NNW 8.7 mph 14.0 mph 66 % 0.00 in
21:35 33.8 °F 23.3 °F 29.72 in WNW 7.5 mph 13.8 mph 65 % 0.00 in
21:40 33.7 °F 23.2 °F 29.73 in WSW 5.0 mph 16.1 mph 65 % 0.00 in
21:45 33.6 °F 23.4 °F 29.73 in WNW 7.5 mph 11.5 mph 66 % 0.00 in
21:50 33.5 °F 23.4 °F 29.73 in WNW 8.0 mph 12.0 mph 66 % 0.00 in
21:55 33.5 °F 23.4 °F 29.73 in WNW 6.6 mph 15.0 mph 66 % 0.00 in
22:00 33.4 °F 23.3 °F 29.74 in WNW 7.9 mph 15.0 mph 66 % 0.00 in
22:05 33.3 °F 22.8 °F 29.74 in West 5.4 mph 11.5 mph 65 % 0.00 in
22:10 33.2 °F 23.1 °F 29.75 in NW 8.3 mph 16.0 mph 66 % 0.00 in
22:16 33.2 °F 23.1 °F 29.75 in West 8.5 mph 11.5 mph 66 % 0.00 in
22:21 33.0 °F 22.9 °F 29.75 in WNW 9.3 mph 13.8 mph 66 % 0.00 in
22:26 33.0 °F 22.9 °F 29.76 in West 5.1 mph 13.8 mph 66 % 0.00 in
22:31 32.8 °F 23.0 °F 29.76 in West 8.7 mph 13.0 mph 67 % 0.00 in
22:36 32.7 °F 22.6 °F 29.77 in West 9.4 mph 15.0 mph 66 % 0.00 in
22:41 32.6 °F 22.5 °F 29.77 in NW 4.3 mph 15.0 mph 66 % 0.00 in
22:46 32.6 °F 22.8 °F 29.77 in West 5.8 mph 9.2 mph 67 % 0.00 in
22:51 32.5 °F 22.8 °F 29.77 in West 6.4 mph 10.0 mph 67 % 0.00 in
22:56 32.3 °F 22.6 °F 29.78 in NW 8.2 mph 12.7 mph 67 % 0.00 in
23:01 32.2 °F 22.1 °F 29.78 in WNW 9.2 mph 14.0 mph 66 % 0.00 in
23:07 32.2 °F 22.1 °F 29.79 in WNW 6.0 mph 13.8 mph 66 % 0.00 in
23:17 32.1 °F 22.4 °F 29.79 in West 4.8 mph 10.4 mph 67 % 0.00 in
23:22 31.9 °F 22.2 °F 29.79 in WSW 4.5 mph 12.7 mph 67 % 0.00 in
23:32 31.7 °F 22.0 °F 29.79 in WNW 3.9 mph 12.0 mph 67 % 0.00 in
23:37 31.6 °F 21.9 °F 29.79 in WSW 3.7 mph 6.9 mph 67 % 0.00 in
23:42 31.5 °F 22.1 °F 29.80 in NNW 5.6 mph 11.5 mph 68 % 0.00 in
23:47 31.4 °F 21.7 °F 29.80 in WNW 7.8 mph 12.0 mph 67 % 0.00 in
23:52 31.4 °F 21.7 °F 29.80 in NNW 6.4 mph 12.7 mph 67 % 0.00 in
23:58 31.3 °F 21.6 °F 29.81 in West 5.5 mph 13.8 mph 67 % 0.00 in
Crab Meadow Weather
Compliments of Weather Underground - 2.75 mb

Script developed by  Jim McMurry - jmcmurry@mwt.net Adapted for the template by  Wim van der Kuil - Leuven-Template.eu

Extremes: In Wyndham, Australia, the temperature reached 90 degrees F for 333 days in 1946.